Погода в Изюме

Погода в Изюме : погода сейчас, прогноз погоды и архив. Всё, что Вы хотите узнать о погоде в Изюме!

Хотите узнать прогноз погоды в Изюме? Тогда Вам сюда: Погода в Изюме

Поиск расширенной информации на нашем сайте:

Полезная информация: тенсель постельное белье купить

Другие новости

Новости СМИ2

Главная страница сайта

Новости сайта

03.07.2017

Напоминаем, что на нашем специализированном сайте Метеоцентр.Азия вы можете получить высокодетализированные автоматические прогнозы погоды по пунктам России, СНГ и мира в авиационном формате (включающие направление и скорость ветра, видимость, явления погоды, количество и форму облачности, нижнюю и верхнюю границу облачности).

Рекомендуем: Купить хоккейные нагрудники.

Погода в Изюме - сегодня

Время (UTC), дата Ветер
(°,м/с) 
Видим.   Явления Облачность Т
(°С)
Тd
(°С)
f(%) Тe
(°С)
Pmin
(гПа)
dP
(гПа)
Po
(мм)
O2
(г/м3)
Тmin Tmax R s Состояние
почвы
00 19.11.17 тихо ()   10 км  {дождь}  10/10 1000 м 
[Sc]
+1.8 +0.7 92 +2  1016  -0.7  755  302      0.1     
03 19.11.17 070 (В) 10 км  слаб. дождь  10/9 300 м средняя 
[Frnb|As op]
+1.8 +1 94 +3  1013.6  -2.4  753  301           
06 19.11.17 тихо ()   1400 м  слаб. дождь  10/9 300 м средняя 
[Frnb|As op]
+2.4 +1.6 94 +2  1013.4  -0.1  753  300  +0.2       
09 19.11.17 тихо ()   1700 м  в посл. час морось{дождь}  10/10 300 м 
[St]
+4.1 +3.4 95 +4  1012.1  -1.3  752  298           
12 19.11.17 160 (Ю) 3400 м  слаб. морось{дождь}  10/10 300 м 
[Frnb]
+5.3 +4.6 95 +6  1011.1  -0.9  751  296      0.3     
15 19.11.17 тихо ()   2000 м  слаб. морось  10/10 300 м 
[Frnb]
+5 +4.5 97 +5  1011.3  0.2  751  297           
18 19.11.17 тихо ()   1000 м  слаб. морось  10/10 300 м 
[Frnb]
+4.8 +4.6 99 +5  1011  -0.3  751  297    +5.4  0.7     
21 19.11.17 тихо ()   1000 м  слаб. дождь{морось}  10/9 300 м средняя 
[Frnb|As op]
+4.8 +4.6 99 +5  1011.5  0.5  751  297           
00 20.11.17 тихо ()   1000 м  слаб. дождь{морось}  10/9 300 м средняя 
[Frnb|As op]
+4.8 +4.6 99 +5  1011  -0.5  751  297         
03 20.11.17 090 (В) 2000 м  слаб. дождь  10/9 300 м средняя 
[Frnb|As op]
+4.8 +4.6 99 +6  1010.3  -0.7  751  296           
06 20.11.17 070 (В) 9000 м  дымка{дождь}  10/10 300 м 
[St]
+5 +4.8 99 +6  1009.8  -0.5  750  296  +4.8       
09 20.11.17 090 (В) 6000 м  слаб. дождь  10/9 300 м средняя 
[Frnb|As op]
+5.7 +5.5 99 +5  1007.7  -2.1  749  295           
12 20.11.17 070 (В) 6000 м  дождь{морось}  10/9 300 м средняя 
[Frnb|As op]
+6 +5.8 99 +7  1006  -1.6  747  294      0.5     
15 20.11.17 тихо ()   1000 м  слаб. дождь{морось}  10/9 300 м средняя 
[Frnb|As op]
+6.6 +6.4 99 +7    -2.3             
18 20.11.17 320 (СЗ) 4000 м  слаб. дождь{морось}  10/9 300 м средняя 
[Frnb|As op]
+6.4 +5.9 97 +6  1002.6  -1.1  745  292    +7.1     
21 20.11.17 340 (С) 4000 м  слаб. дождь  10/9 300 м средняя 
[Frnb|As op]
+3.8 +3.3 97 +3  1003.1  0.4  745  296           
00 21.11.17 340 (С) 4000 м  дымка{дождь}  10/10 300 м 
[St]
+3 +2.2 94 +2  1003.8  0.7  746  297         
03 21.11.17 340 (С) 4000 м  дымка  10/10 300 м 
[St]
+2.4 +1.6 94 +1  1004.9  746  298           
06 21.11.17 020 (С) 20000 м    10/10 300 м 
[St]
+1.9 +0.8 92 1005.4  0.5  747  299  +1.9       
09 21.11.17 020 (С) 20000 м    10/10 300 м 
[St]
+2.2 +0.6 89 +1  1005.7  0.3  747  298           
12 21.11.17 020 (С) 20000 м  слаб. дождь  10/9 300 м средняя 
[Frnb|As op]
+2.2 +0.9 91 1004.8  -0.9  746  298      0.3     
15 21.11.17 020 (С) 10 км  слаб. дождь со снегом  10/9 300 м средняя 
[Frnb|As op]
+1.5 +0.4 92 1005.2  0.4  747  299           
18 21.11.17 340 (С) 4000 м  слаб. дождь со снегом  10/9 300 м средняя 
[Frnb|As op]
+0.5 +0.2 98 -1  1005.1  -0.1  747  300    +2.4     
21 21.11.17 340 (С) 4000 м  слаб. снег{дождь}  10/9 300 м средняя 
[Frnb|As op]
+0.3 +0 98 1006.2  747  301           
00 22.11.17 320 (СЗ) 4000 м  слаб. снег{дождь}  10/9 300 м средняя 
[Frnb|As op]
+0.2 -0.4 96 -2  1007.1  0.9  748  301         
Время (UTC), дата Ветер
(°,м/с) 
Видим.   Явления Облачность Т
(°С)
Тd
(°С)
f(%) Тe
(°С)
Pmin
(гПа)
dP
(гПа)
Po
(мм)
O2
(г/м3)
Тmin Tmax R s Состояние
почвы

Для получения пояснительной информации подведите курсор к названию столбца.

ПОГОДА в Изюме - архив

Всё, что Вы хотите узнать о погоде в Изюме - удобно и подробно!

Выберите нужную дату (начиная с 1 января 2015* года) и нажмите кнопку "Найти".
Будут отображены архивные сводки погоды по пункту Изюм, начиная с указанной даты.


Отображать данные в формате CSV (для использования в таблицах Excel)


Внимание! Наш архив погоды предназначен исключительно для личного некоммерческого использования в познавательных целях. Если Вам необходимы официальные справки о состоянии погоды (для производственных, юридических, коммерческих и т.п. целей), обращайтесь в органы Росгидромета.

*Примечание: данная дата относится к архиву по метеостанциям СССР (Россия, СНГ, Балтия).
Архив по метеостанциям Зарубежной Европы и Азии (кроме Китая) хранится 10 дней, по другим регионам земного шара (Китай, Африка, Америка, Австралия, Океания) - 1 день.

Изюм - район местоположения метеостанции


Название, широта, долгота, высота метеостанции:
Изюм 49.2°ш. 37.3°д. 78 м над ур. моря [Украина]

Дополнительная информация

В oтличие oт бoльшинства пoгoдных сайтoв мы публикуем пoдрoбную метеoинфoрмацию в детальнoм прoфессиoнальнoм фoрмате.

Характеристики температуры и влажнoсти вoздуха измеряются на высoте 2 м в тени вдали oт зданий и деревьев.
Скoрoсть ветра измеряется на высoте 10 м (на урoвне рoста челoвека скoрoсть ветра ниже в 1.5-2 раза). Если метеoстанция нахoдится в гoрoде или в лесу, тo скoрoсть ветра занижена на 2-4 м/с пo сравнению с oткрытым местoм. Скoрoсть ветра над акватoриями крупных рек и oзёр, а также на вершинах хoлмoв на 2-5 м/с выше, чем в oбычных услoвиях.
Атмoсфернoе давление в разных тoчках местнoсти мoжет значительнo oтличаться oт давления на метеoстанции, в зависимoсти oт услoвий рельефа (при пoдъёме на 10 м давление пoнижается примернo на 1 мм рт.ст.).